Location: Newark
(25.4800°N, 85.7200°E)
Time: 08:06:50
(UTC+00:00)

Explorer 11/Cluster Stage 4 - Pass Details

Date: 21 August 2019
Orbit: 467 x 1260 km, 28.8° (Epoch: 19 September)

Event Time Altitude Azimuth Distance (km) Brightness Sun altitude
Rises 12:06:46 0° 276° (W) 3,616 12.5 8.2°
Reaches altitude 10° 12:10:14 10° 262° (W) 2,505 10.9 7.4°
Maximum altitude 12:14:35 21° 214° (SW) 1,640 8.6 6.5°
Drops below altitude 10° 12:18:20 10° 165° (SSE) 2,097 8.5 5.6°
Sets 12:20:57 0° 148° (SSE) 2,877 9.1 5.0°
